Regional Weather Roundup
Issued by NWS Boston, MA

Home | Current Version | Previous Version | Text Only | Print | Product List | Glossary On
Versions: 1 2 3 4 5 6 7 8 9 10 11 12 13 14 15 16 17 18 19 20 21 22 23 24 25 26 27 28 29 30 31 32 33 34 35 36 37 38 39 40 41 42 43 44 45 46 47 48 49 50
000
ASUS41 KBOX 230110
RWRBOX

REGIONAL WEATHER ROUNDUP
NATIONAL WEATHER SERVICE TAUNTON MA
900 PM EDT FRI AUG 22 2014

NOTE:  "FAIR" INDICATES FEW OR NO CLOUDS BELOW 12,000 FEET WITH NO
SIGNIFICANT WEATHER AND/OR OBSTRUCTIONS TO VISIBILITY.  THE FOLLOWING
OBSERVATION LOCATIONS DO NOT REPORT PRESENT WEATHER...PROVINCETOWN...
SMITHFIELD...BLOCK ISLAND...KEENE...AND OXFORD.

MAZALL-230200-
EASTERN MASSACHUSETTS

CITY           SKY/WX    TMP DP  RH WIND       PRES   REMARKS
BOSTON         CLOUDY    66  63  88 NE10      30.11R
BEVERLY        CLOUDY    65  61  87 NE6       30.11R
LAWRENCE       CLOUDY    63  60  90 NE6       30.14R
BEDFORD        MOCLDY    64  61  90 NE7       30.10R
BLUE HILL        N/A     63  62  97 NE9       30.10S
NORWOOD        MOCLDY    65  61  87 NE5       30.10R
MARSHFIELD     MOCLDY    66  64  94 NE9       30.11S
PLYMOUTH       MOCLDY    65  61  87 NE7       30.09S
TAUNTON        MOCLDY    66  61  84 VRB3      30.09R
NEW BEDFORD    CLEAR     66  61  84 NE7       30.08R
$$

MAZALL-230200-
CAPE COD AND THE ISLANDS

CITY           SKY/WX    TMP DP  RH WIND       PRES   REMARKS
FALMOUTH       CLOUDY    66  61  82 NE9       30.08F
HYANNIS        PTCLDY    67  60  78 NE7       30.07S
CHATHAM        PTCLDY    67  61  81 NE8       30.09S
PROVINCETOWN   MOCLDY    64  61  88 MISG      30.10S
NANTUCKET      MOCLDY    65  61  87 NE10      30.07R
MARTHAS VNYRD  MOCLDY    67  60  78 NE10      30.07S
$$

MAZALL-230200-
CENTRAL AND WESTERN MASSACHUSETTS

CITY           SKY/WX    TMP DP  RH WIND       PRES   REMARKS
WORCESTER      CLOUDY    62  60  93 VRB7      30.12S
FITCHBURG      CLOUDY    65  61  87 N3        30.13R
ORANGE         CLOUDY    63  61  93 CALM      30.11S
SPRINGFIELD    CLOUDY    64  63  97 N2        30.09S
WESTFIELD      CLOUDY    66  63  90 N6        30.09S
NORTH ADAMS    CLOUDY    65  59  81 E8        30.10S
PITTSFIELD     CLOUDY    62  59  90 E6        30.10S
$$

RIZALL-230200-
RHODE ISLAND

CITY           SKY/WX    TMP DP  RH WIND       PRES   REMARKS
PROVIDENCE     CLOUDY    68  59  73 NE10      30.09R
NEWPORT        CLOUDY    68  61  78 NE6       30.08R
BLOCK ISLAND   PTCLDY    66  59  77 E6        30.08R
SMITHFIELD     PTCLDY    64  55  72 NE6       30.10R
WESTERLY       PTCLDY    68  61  78 CALM      30.08R
$$

CTZALL-230200-
CONNECTICUT

CITY           SKY/WX    TMP DP  RH WIND       PRES   REMARKS
BRADLEY INTL   CLOUDY    66  63  90 N5        30.08S
HARTFORD       CLOUDY    66  63  90 N7        30.08R
BRIDGEPORT     CLOUDY    71  62  73 E10       30.06R
DANBURY        CLOUDY    68  61  78 E6        30.08S
GROTON         MOCLDY    67  62  84 NE3       30.06S
NEW HAVEN      CLOUDY    71  62  73 E3        30.06S
CHESTER        CLOUDY    66  64  94 NE3       30.08S
MERIDEN        CLOUDY    68  62  81 NE3       30.07S
WILLIMANTIC    LGT RAIN  67  63  87 NE6       30.09R
OXFORD         CLOUDY    66  59  77 NE6       30.10
$$

MEZ002-015-021-024-NHZ003-005-008-011-012-014-VTZ005-008-230200-
NORTHERN NEW ENGLAND

CITY           SKY/WX    TMP DP  RH WIND       PRES   REMARKS
PORTLAND ME    PTCLDY    61  55  81 CALM      30.15R
BANGOR ME      CLOUDY    67  56  67 E3        30.15R
CONCORD NH     CLOUDY    63  58  83 CALM      30.14R
MANCHESTER NH  CLOUDY    64  58  80 NE7       30.11S
NASHUA NH      PTCLDY    65  62  90 CALM      30.13R
PORTSMOUTH NH  MOCLDY    62  58  85 N2        30.12S
JAFFREY NH     CLOUDY    61  60  97 CALM      30.14S
KEENE NH       MOCLDY    63  55  77 N3        30.13S
BURLINGTON VT  CLOUDY    64  61  90 SW3       30.12S
MT. WASHINGTON LGT RAIN  45  45 100 E18         N/A  VSB 0
$$

NYZ052-076-230200-
EASTERN NEW YORK

CITY           SKY/WX    TMP DP  RH WIND       PRES   REMARKS
ALBANY         CLOUDY    66  61  84 CALM      30.09R
NEW YORK CITY  CLOUDY    71  59  65 E8        30.04R
$$

ANZALL-230200-
MARINE OBSERVATIONS

STATION/POSITION TIME  TEMP    WIND        PRES    VSBY  WAVE
                       AIR SEA DIR/SP/G                  HT/PER
                 (UTC) (F)     (DEG/KT/KT) (MB)    (MI)  (FT/S)
BOSTON BUOY      0050   66 66   60/ 10/ 12 1019.4R         3/ 4
BUZZARDS BAY     0000           50/ 14/ 15 1018.7F
NANTUCKET SOUND  0050   68 71   40/ 14/ 17 1018.0R         2/ 3
MASS BAY-STELLWA 0004   66 67   60/ 10/ 12   N/A    1 7/8  3/ 8
ISLE OF SHOALS   0100   63      30/  8/  9 1019.7R
S OF BLOCK IS    0008      68                N/A           3/ 7
$$

......................KEY.........................
  SKY/WX - SKY CONDITION/PRESENT WEATHER
  TMP    - TEMPERATURE IN FAHRENHEIT
  DWPT   - DEWPOINT IN FAHRENHEIT
  RH     - RELATIVE HUMIDITY IN PERCENT
  WIND   - DIRECTION AND SPEED IN MPH
  PRES   - MEAN SEA LEVEL PRESSURE IN INCHES OF HG
  WCI    - WIND CHILL INDEX
  VSB    - VISIBILITY IN MILES
  HX     - HEAT INDEX
  TC     - TEMPERATURE IN CELSIUS
  VRB    - VARIABLE WIND DIRECTION
  N/A    - NOT AVAILABLE


USA.gov is the U.S. government's official web portal to all federal, state and local government web resources and services.